EDT,Max TemperatureF,Mean TemperatureF,Min TemperatureF,Max Dew PointF,MeanDew PointF,Min DewpointF,Max Humidity, Mean Humidity, Min Humidity, Max Sea Level PressureIn, Mean Sea Level PressureIn, Min Sea Level PressureIn, Max VisibilityMiles, Mean VisibilityMiles, Min VisibilityMiles, Max Wind SpeedMPH, Mean Wind SpeedMPH, Max Gust SpeedMPH,PrecipitationIn, CloudCover, Events, WindDirDegrees
2013-6-1,89,74,60,68,64,59,100,69,43,30.07,30.01,29.94,10,10,5,9,3,,0.00,0,,204
2013-6-2,82,75,68,70,65,61,94,72,57,29.95,29.90,29.86,10,9,1,15,7,28,0.00,3,,214
2013-6-3,78,70,62,68,65,55,94,83,64,29.96,29.89,29.85,10,7,1,15,3,26,0.00,5,,235
2013-6-4,73,63,53,55,47,39,94,58,33,30.15,30.09,29.97,10,10,10,9,5,16,0.00,0,,320
2013-6-5,77,62,48,55,51,45,100,67,32,30.21,30.15,30.09,10,10,10,13,3,24,0.00,0,,120
2013-6-6,71,62,53,63,58,52,94,81,60,30.12,30.02,29.90,10,10,3,14,3,20,0.00,6,,129
2013-6-7,69,66,64,68,65,63,94,92,83,29.90,29.74,29.60,10,5,1,12,5,16,0.00,8,,28
2013-6-8,77,68,60,63,61,57,100,81,50,30.11,29.94,29.70,10,8,2,10,5,16,0.00,3,,281
2013-6-9,78,68,59,66,62,57,100,78,57,30.23,30.16,30.12,10,8,2,9,2,,0.00,6,,114
2013-6-10,78,73,68,72,68,63,94,90,78,30.13,29.98,29.82,10,7,0,9,3,17,0.00,7,,157
2013-6-11,80,72,64,68,64,63,100,80,57,29.87,29.83,29.79,10,8,2,20,6,25,0.00,4,,253
2013-6-12,84,72,60,70,65,61,100,75,51,29.89,29.86,29.81,10,8,2,13,3,22,0.00,1,,289
2013-6-13,82,75,68,70,67,64,94,84,58,29.83,29.65,29.48,10,7,0,22,4,45,0.00,2,,219
2013-6-14,77,68,59,59,53,48,88,65,41,29.99,29.88,29.68,10,10,5,16,7,25,0.00,4,,329
2013-6-15,80,66,53,61,55,52,100,70,37,30.10,30.04,29.99,10,9,4,12,2,17,0.00,0,,291
2013-6-16,82,70,59,68,62,55,100,77,54,30.05,29.97,29.90,10,9,5,15,3,21,0.00,2,,244
2013-6-17,86,74,62,70,65,61,94,76,48,29.98,29.94,29.90,10,10,7,9,2,,0.00,3,,232
2013-6-18,75,68,60,70,65,59,100,89,78,29.94,29.88,29.82,10,6,0,10,2,,0.00,4,,94
2013-6-19,73,66,59,63,59,54,100,77,50,30.18,30.05,29.91,10,9,2,8,2,,0.00,5,,71
2013-6-20,78,66,55,61,56,52,100,73,39,30.30,30.26,30.19,10,9,0,9,2,,0.00,2,,145
2013-6-21,78,64,51,59,53,36,100,68,21,30.34,30.30,30.26,10,10,7,9,1,,0.00,0,,130
2013-6-22,84,70,55,64,60,54,100,73,45,30.28,30.24,30.17,10,10,7,9,2,,0.00,0,,183
2013-6-23,80,71,62,72,66,61,94,86,69,30.23,30.17,30.10,10,9,0,8,1,,0.00,3,,130
2013-6-24,89,76,64,72,67,63,100,80,43,30.15,30.11,30.04,10,8,3,10,2,,0.00,0,,224
2013-6-25,89,76,62,72,67,61,100,75,46,30.07,30.00,29.91,10,8,1,17,3,28,0.00,1,,251
2013-6-26,89,76,64,72,68,63,100,81,52,29.96,29.90,29.83,10,7,2,12,3,17,0.00,2,,241
2013-6-27,82,73,64,72,68,64,100,87,70,29.86,29.75,29.63,10,7,2,15,3,22,0.00,4,,191
2013-6-28,86,76,66,72,68,64,100,84,55,29.66,29.58,29.52,10,7,1,13,3,21,0.00,3,,227
2013-6-29,68,65,62,66,64,63,100,95,88,29.60,29.57,29.55,3,2,1,5,1,,0.00,4,,224
2013-6-30,,,,,,,,,,,,,,,,,,,,,,